Battle Creek, MI

10:57 AM EDT on August 25, 2016 (GMT -0400)
Kellogg

Weather History for KBTL - January, 2013

Change the Weather History Date:

Saturday, January 26, 2013

  Actual Average Record
Temperature  
Mean Temperature 22 °F 24 °F  
Max Temperature 27 °F 32 °F 50 °F (2002)
Min Temperature 17 °F 15 °F -6 °F (2003)
Degree Days  
Heating Degree Days 43 41  
Month to date heating degree days 954 1080  
Since 1 July heating degree days 3315 3680  
Cooling Degree Days 0 0  
Month to date cooling degree days 0 0  
Year to date cooling degree days 0 0  
Moisture  
Dew Point 14 °F    
Average Humidity 71    
Maximum Humidity 91    
Minimum Humidity 50    
Precipitation  
Precipitation T in 0.05 in 0.19 in (2012)
Month to date precipitation 1.38 1.46  
Year to date precipitation 1.38 1.46  
Sea Level Pressure  
Sea Level Pressure 30.28 in    
Wind  
Wind Speed 6 mph (WNW)    
Max Wind Speed 15 mph    
Max Gust Speed 20 mph    
Visibility 8 miles    
Events Snow    
T = Trace of Precipitation, MM = Missing Value Source: NWS Daily Summary

Daily Weather History Graph

Daily Weather History Graph

Search for Another Location

Airport or City:

Trip Planner

Search our weather history database for the weather conditions in past years. The results will help you decide how hot, cold, wet, or windy it might be!

Date:

Astronomy

Jan. 26, 2013 Rise Set
Actual Time 7:59 AM EST 5:47 PM EST
Civil Twilight 7:29 AM EST 6:18 PM EST
Nautical Twilight 6:55 AM EST 6:51 PM EST
Astronomical Twilight 6:22 AM EST 7:25 PM EST
Moon 5:42 PM EST (1/26) 7:16 AM EST (1/26)
Length of Visible Light 10h 48m
Length of Day
9h 47m
Full, 100% of the Moon is Illuminated
Jan 26
Full
Jan 26
Full
Feb 3
Last Quarter
Feb 10
New
Feb 17
First Quarter

Hourly Weather History & Observations

Time (EST) Temp. Windchill Dew Point Humidity Pressure Visibility Wind Dir Wind Speed Gust Speed Precip Events Conditions
12:53 AM 21.0 °F 16.2 °F 18.0 °F 88% 30.09 in 5.0 mi WNW 3.5 mph - 0.00 in Snow Light Snow
1:09 AM 21.2 °F 14.9 °F 17.6 °F 86% 30.04 in 5.0 mi West 4.6 mph - 0.00 in Snow Light Snow
1:53 AM 21.0 °F 14.6 °F 17.1 °F 85% 30.11 in 4.0 mi NW 4.6 mph - 0.00 in Snow Light Snow
2:01 AM 21.2 °F 13.6 °F 17.6 °F 86% 30.07 in 4.0 mi WNW 5.8 mph - 0.00 in Snow Light Snow
2:53 AM 19.9 °F 13.4 °F 17.1 °F 89% 30.14 in 4.0 mi WNW 4.6 mph - 0.00 in Snow Light Snow
3:53 AM 19.9 °F 14.9 °F 17.1 °F 89% 30.16 in 5.0 mi West 3.5 mph - 0.00 in Snow Light Snow
4:53 AM 19.9 °F 14.9 °F 16.0 °F 85% 30.17 in 5.0 mi NW 3.5 mph - 0.00 in Snow Light Snow
5:44 AM 19.4 °F 10.4 °F 15.8 °F 86% 30.14 in 4.0 mi NW 6.9 mph - 0.00 in Snow Light Snow
5:53 AM 19.9 °F 13.4 °F 16.0 °F 85% 30.20 in 3.0 mi WNW 4.6 mph - 0.00 in Snow Light Snow
6:39 AM 19.4 °F 9.5 °F 15.8 °F 86% 30.17 in 4.0 mi NW 8.1 mph - 0.00 in Snow Light Snow
6:53 AM 19.9 °F 11.1 °F 16.0 °F 85% 30.22 in 3.0 mi NNW 6.9 mph - 0.00 in Snow Light Snow
7:53 AM 19.9 °F 11.1 °F 15.1 °F 81% 30.25 in 10.0 mi NNW 6.9 mph - 0.00 in   Overcast
8:53 AM 19.9 °F 13.4 °F 15.1 °F 81% 30.27 in 10.0 mi WNW 4.6 mph - N/A   Overcast
9:53 AM 21.0 °F 11.4 °F 14.0 °F 74% 30.30 in 10.0 mi NW 8.1 mph - N/A   Overcast
10:53 AM 21.9 °F 11.7 °F 12.9 °F 68% 30.33 in 10.0 mi WNW 9.2 mph - N/A   Partly Cloudy
11:53 AM 24.1 °F 13.7 °F 10.9 °F 57% 30.34 in 8.0 mi NW 10.4 mph - N/A   Clear
12:53 PM 26.1 °F 15.6 °F 10.9 °F 53% 30.35 in 10.0 mi NW 11.5 mph - 0.00 in   Mostly Cloudy
1:53 PM 26.1 °F 15.6 °F 10.0 °F 51% 30.35 in 10.0 mi NNW 11.5 mph - 0.00 in   Scattered Clouds
2:53 PM 26.1 °F 19.4 °F 12.0 °F 55% 30.35 in 10.0 mi WNW 5.8 mph - 0.00 in   Mostly Cloudy
3:53 PM 26.1 °F 16.2 °F 12.0 °F 55% 30.36 in 10.0 mi NW 10.4 mph - 0.00 in   Clear
4:53 PM 25.0 °F 15.5 °F 12.0 °F 58% 30.38 in 10.0 mi WNW 9.2 mph - 0.00 in   Partly Cloudy
5:53 PM 25.0 °F 17.1 °F 12.9 °F 60% 30.41 in 10.0 mi WNW 6.9 mph - N/A   Overcast
6:53 PM 23.0 °F 18.4 °F 12.9 °F 65% 30.41 in 10.0 mi WNW 3.5 mph - N/A   Overcast
7:53 PM 21.9 °F - 12.9 °F 68% 30.43 in 10.0 mi Calm Calm - N/A   Mostly Cloudy
8:53 PM 21.9 °F - 14.0 °F 72% 30.42 in 10.0 mi Calm Calm - N/A   Clear
9:53 PM 19.0 °F 13.9 °F 12.9 °F 77% 30.43 in 10.0 mi SW 3.5 mph - N/A   Clear
10:53 PM 21.9 °F - 14.0 °F 72% 30.43 in 10.0 mi Calm Calm - N/A   Clear
11:53 PM 17.1 °F - 12.0 °F 81% 30.46 in 10.0 mi Calm Calm - N/A   Clear